星链-3323 (STARLINK-3323 )

导读

STARLINK-3323是美国太空探索技术公司(SpaceX)发射的星链卫星,隶属于美国星链(Starlink)互联网星座项目。该卫星于2022年1月6日发射入轨,主要承载全球低轨宽带互联网服务任务,助力为全球偏远、网络欠发达区域提供高速卫星互联网接入,延续星链星座的组网部署进程。

基本信息
目录编号:
50804
目录名称:
STARLINK-3323
国际标识:
2022-001B
轨道中心:
EARTH
卫星名称:
星链-3323
卫星全名:
星链-3323 (STARLINK-3323 )
卫星状态:
在轨 (已飞行1623 天)
发射日期:
2022-01-06 UTC
国别 :
美国 (US)
星等 :
--
轨道信息
数据来源 国际轨道数据 AOE轨道数据
星历时间 2026-06-17T09:10:38+0800
18小时前
查看轨道信息
2026-06-14T01:00:00+0800
4天前
查看轨道信息
半长轴 6917.917km 6917.886km
偏心率 0.0001237 0.0001409
轨道倾角 53.161° 53.160°
近地点辐角 94.107° 79.691°
升交点赤经 72.984° 88.003°
平近点角 266.006° 124.494°
近地点 538.924km 538.774km
远地点 540.636km 540.724km
周期 95.438分钟 95.438分钟
每日圈数 15.088281 15.088382
详细信息
固有亮度:
5
最大亮度:
2.5
卫星平台:
Starlink v1.5
覆盖范围:
全球
运营商:
太空探索技术公司
运营商所在国:
美国
制造商(研发单位):
太空探索技术公司
制造商所在国:
美国
使用方式:
暂无
卫星简介
星链(Starlink)计划是由太空探索技术公司(SpaceX)提出的一个巨型低轨卫星互联网星座项目,计划在2019年至2024年间在太空搭建由约1.2万颗卫星组成的“星链”网络,其中1584颗将部署在地球上空550千米处的近地轨道,并从2020年开始工作。该卫星仍在工作。
2D轨道图
3D轨道图
轨道高度分析图
轨道倾角分析图
轨道综合分析图
查看轨道综合分析图